[[{"header":{"parameterUnit":"m.s-1","parameterCategory":1,"la1":30.2991,"la2":30.254,"lo1":-89.0895,"lo2":-89.0444,"dy":0.0017,"dx":0.0017,"nx":28,"ny":28,"refTime":"2024-09-29T03:00:00:Z","depth":0,"parameterNumber":2,"parameterNumberName":"U-component_of_WINDS"},"data":[0,0,0,0,0,0,0,0,0,0,0,0,0,0,0,0,0,0,0,0,0,0,0,0,0,0,0,0,0,0,0,0,0,0,0,0,0,0,0,0,0,0,0,0,0,0,0,0,0,0,0,0,0,0,0,0,0,0,0.9676,0.9676,0,0.97,0.97,0.9701,0.9755,0.9757,0.9758,0.9759,0.9781,0.9781,0.978,0,0,0,0,0,0,0,0,0,0,0,0,0,0.9676,0.9675,0.9676,0.9676,0.9677,0.97,0.97,0.9701,0.9755,0.9757,0.9758,0.9759,0.9781,0.9781,0.978,0,0,0,0,0,0,0,0,0,0,0,0,0,0.9685,0.9675,0.9676,0.9707,0.971,0.97,0.97,0.9701,0.9755,0.9757,0.9758,0.976,0.9782,0.9781,0.978,0.9742,0,0,0.9778,0.9778,0,0,0,0,0,0,0,0,0.9685,0.9685,0.9702,0.9705,0.9708,0.9727,0.9709,0.9715,0.9755,0.9738,0.9759,0.9761,0.9762,0.9763,0.9763,0.9743,0.9744,0.9778,0.9778,0.9777,0.9777,0,0,0,0,0,0,0,0.9684,0.9684,0.9686,0.9702,0.9706,0.9719,0.9722,0.971,0.974,0.9739,0.9743,0.9746,0.9764,0.9764,0.9764,0.9744,0.9778,0.9778,0.9777,0.9777,0.9694,0.9692,0,0,0,0,0,0,0.9679,0.9684,0.9685,0.9686,0.97,0.9717,0.9721,0.9719,0.974,0.9745,0.9744,0.9748,0.9764,0.9765,0.9765,0.9722,0.9777,0.9777,0.9776,0.9695,0.9693,0.9691,0,0,0,0,0,0,0.9679,0.9679,0.9684,0.9686,0.9688,0.9716,0.9713,0.9718,0.9719,0.9744,0.9749,0.9739,0.9766,0.9766,0.9748,0.9723,0.9777,0.9776,0.9697,0.9695,0.9692,0.9634,0,0,0,0,0,0,0.9679,0.9678,0.9664,0.9685,0.9687,0.9666,0.9711,0.9718,0.9718,0.9723,0.974,0.9745,0.9767,0.9748,0.9747,0.9723,0.9775,0.97,0.9696,0.9693,0.9638,0.963,0.9622,0,0,0,0,0,0.9678,0.9647,0.9664,0.9663,0.9671,0.9665,0.9666,0.9692,0.9716,0.9702,0.9718,0.9744,0.9726,0.9746,0.9745,0.9721,0.9701,0.9697,0.9693,0.9642,0.9631,0.9623,0,0,0,0,0,0,0.9622,0.965,0.9669,0.9643,0.9651,0.9674,0.9657,0.968,0.9681,0.9686,0.9719,0.9722,0.9699,0.9708,0.9729,0.9684,0.9718,0.9714,0.9679,0.967,0.9662,0.966,0.9775,0,0,0,0,0,0.9606,0.96,0.9625,0.9599,0.9603,0.9629,0.9627,0.9647,0.9656,0.966,0.9674,0.9682,0.9678,0.9674,0.9672,0.964,0.9644,0.9623,0.9615,0.9608,0.9604,0.9587,0.9578,0.9678,0.9678,0.9678,0,0,0.9574,0.9589,0.9583,0.9588,0.9597,0.9588,0.9631,0.9621,0.9615,0.9658,0.9641,0.9652,0.9662,0.9637,0.9626,0.9643,0.9577,0.9603,0.9597,0.9597,0.9582,0.9572,0.9564,0.9675,0.9676,0.9676,0,0,0.9512,0.9522,0.9503,0.951,0.9523,0.954,0.9535,0.9555,0.9564,0.9547,0.958,0.9572,0.9565,0.9571,0.9573,0.9512,0.9536,0.951,0.9469,0.9452,0.9444,0.9437,0.9415,0.9407,0.9506,0.9506,0.9506,0,0.947,0.9459,0.9489,0.9477,0.9478,0.9517,0.9497,0.9503,0.9513,0.9513,0.9533,0.9524,0.9534,0.951,0.9495,0.9495,0.949,0.9508,0.9443,0.9436,0.943,0.9409,0.9401,0.9502,0.9503,0.9503,0.9503,0,0.9407,0.9399,0.9382,0.9392,0.9391,0.9374,0.9401,0.9397,0.9416,0.9432,0.9414,0.9428,0.9428,0.9424,0.9443,0.9403,0.9413,0.9437,0.9472,0.9417,0.9398,0.939,0.9498,0.9499,0.95,0.9501,0,0,0.931,0.9336,0.9329,0.9334,0.9351,0.9345,0.933,0.9331,0.9326,0.9332,0.932,0.9313,0.9335,0.9337,0.9357,0.9342,0.9293,0.9368,0.9369,0.9354,0.9248,0.923,0.922,0.9309,0.9308,0.9307,0.9247,0,0.9251,0.9227,0.9254,0.9224,0.9217,0.9254,0.9241,0.9249,0.9263,0.9258,0.9273,0.9267,0.9298,0.9299,0.9286,0.9301,0.9272,0.9306,0.9297,0.9297,0.9293,0.921,0.9191,0.9134,0.924,0.9239,0.9238,0,0.9179,0.9182,0.9152,0.917,0.9168,0.9156,0.9159,0.9154,0.9164,0.9175,0.9177,0.9201,0.9187,0.9221,0.9201,0.9224,0.9222,0.9228,0.9227,0.9227,0.9264,0.9207,0.9117,0.9108,0.9227,0.9227,0.9228,0,0.911,0.9107,0.9088,0.9091,0.9112,0.9102,0.911,0.9122,0.9121,0.9123,0.9123,0.9123,0.9124,0.9123,0.9146,0.9169,0.9124,0.9159,0.9132,0.9131,0.912,0.9121,0.9027,0.9119,0.9119,0.912,0.912,0,0.9041,0.9021,0.9058,0.9046,0.9025,0.9055,0.9032,0.9044,0.9054,0.9045,0.9077,0.9068,0.9099,0.9093,0.9111,0.9092,0.9092,0.91,0.9105,0.9097,0.9096,0.9096,0.91,0.9117,0.9118,0.9118,0.9119,0,0.8961,0.8984,0.8967,0.8988,0.8993,0.8976,0.8994,0.8983,0.9,0.8988,0.8986,0.9011,0.9006,0.9029,0.9027,0.9039,0.901,0.9022,0.9007,0.9011,0.8981,0.8984,0.8885,0.8873,0.8973,0.8972,0.8971,0,0.8915,0.8901,0.892,0.8917,0.8924,0.8918,0.8917,0.8946,0.8943,0.8953,0.8942,0.8939,0.8938,0.8927,0.8944,0.8943,0.8955,0.892,0.8954,0.8947,0.8953,0.8954,0.8952,0.8913,0.8911,0.891,0.8909,0,0.8832,0.8844,0.8842,0.8844,0.8842,0.8845,0.885,0.8845,0.8876,0.8871,0.8866,0.8866,0.8864,0.886,0.8863,0.887,0.8894,0.8899,0.8892,0.8883,0.8875,0.8879,0.8987,0.8901,0.8901,0.8902,0.8903,0.8903,0.8767,0.8756,0.8768,0.8764,0.8771,0.8775,0.8766,0.8781,0.8778,0.8779,0.8796,0.8787,0.8797,0.8803,0.8808,0.8801,0.8817,0.8808,0.8805,0.8802,0.8797,0.8876,0.8801,0.8802,0.8802,0.8802,0.8802,0,0.8685,0.8694,0.8691,0.8697,0.8694,0.8718,0.8724,0.872,0.8712,0.8719,0.8718,0.8712,0.8708,0.8725,0.8724,0.8715,0.8726,0.8714,0.8715,0.8716,0.8783,0.8789,0.8705,0.8705,0.8705,0.8705,0.8705,0.8705,0.8641,0.8624,0.8637,0.8623,0.8633,0.8625,0.8626,0.863,0.8636,0.8627,0.8625,0.8636,0.8647,0.8647,0.8644,0.865,0.8647,0.8631,0.8639,0.8702,0.8711,0.872,0.8726,0.863,0.863,0.8573,0.8572,0.8572]},{"header":{"parameterUnit":"m.s-1","parameterCategory":1,"la1":30.2991,"la2":30.254,"lo1":-89.0895,"lo2":-89.0444,"dy":0.0017,"dx":0.0017,"nx":28,"ny":28,"refTime":"2024-09-29T03:00:00:Z","depth":0,"parameterNumber":3,"parameterNumberName":"V-component_of_WINDS"},"data":[0,0,0,0,0,0,0,0,0,0,0,0,0,0,0,0,0,0,0,0,0,0,0,0,0,0,0,0,0,0,0,0,0,0,0,0,0,0,0,0,0,0,0,0,0,0,0,0,0,0,0,0,0,0,0,0,0,0,1.1548,1.1548,0,1.1555,1.1555,1.1556,1.1562,1.1562,1.1562,1.1562,1.1569,1.1569,1.1569,0,0,0,0,0,0,0,0,0,0,0,0,0,1.1536,1.1536,1.1548,1.1548,1.1548,1.1555,1.1555,1.1556,1.1562,1.1562,1.1562,1.1562,1.1569,1.1569,1.1569,0,0,0,0,0,0,0,0,0,0,0,0,0,1.1542,1.1536,1.1548,1.1552,1.1552,1.1555,1.1555,1.1556,1.1562,1.1562,1.1562,1.1562,1.1569,1.1569,1.1569,1.1568,0,0,1.1569,1.1569,0,0,0,0,0,0,0,0,1.1541,1.1542,1.1551,1.1552,1.1552,1.1558,1.1554,1.156,1.1562,1.1558,1.1562,1.1562,1.1565,1.1565,1.1567,1.1568,1.1568,1.1569,1.157,1.157,1.157,0,0,0,0,0,0,0,1.1541,1.1542,1.1551,1.1551,1.1552,1.1553,1.1554,1.1555,1.1561,1.1559,1.1559,1.156,1.1565,1.1566,1.1567,1.1568,1.1569,1.157,1.157,1.157,1.1567,1.1567,0,0,0,0,0,0,1.154,1.1542,1.155,1.1551,1.1547,1.1553,1.1554,1.1556,1.1561,1.1562,1.156,1.156,1.1566,1.1567,1.1567,1.1565,1.157,1.157,1.157,1.1567,1.1567,1.1567,0,0,0,0,0,0,1.154,1.1541,1.155,1.1546,1.1548,1.1553,1.1555,1.1556,1.1557,1.1562,1.1563,1.156,1.1566,1.1567,1.1567,1.1565,1.157,1.157,1.1568,1.1567,1.1567,1.1561,0,0,0,0,0,0,1.154,1.1541,1.1541,1.1546,1.1548,1.1551,1.1555,1.1556,1.1558,1.1558,1.1562,1.1563,1.1566,1.1567,1.1567,1.1565,1.157,1.1568,1.1567,1.1567,1.1561,1.156,1.156,0,0,0,0,0,1.1539,1.1539,1.1541,1.1542,1.1548,1.1551,1.1552,1.1556,1.1558,1.1557,1.156,1.1563,1.1565,1.1567,1.1567,1.1566,1.1568,1.1568,1.1567,1.1562,1.1561,1.156,0,0,0,0,0,0,1.1534,1.154,1.1542,1.1544,1.1547,1.1552,1.1552,1.1555,1.1557,1.1557,1.1561,1.1562,1.1562,1.1564,1.1565,1.1564,1.1567,1.1567,1.1562,1.1562,1.1561,1.156,1.157,0,0,0,0,0,1.1533,1.1535,1.154,1.1541,1.1542,1.1547,1.1548,1.1551,1.1554,1.1555,1.1558,1.156,1.1561,1.1561,1.1563,1.1562,1.1562,1.156,1.156,1.1559,1.1558,1.1556,1.1555,1.1566,1.1566,1.1566,0,0,1.1531,1.1535,1.1536,1.154,1.1543,1.1544,1.1548,1.1549,1.155,1.1555,1.1555,1.1557,1.156,1.1559,1.1559,1.156,1.1555,1.1558,1.1558,1.1558,1.1556,1.1555,1.1554,1.1566,1.1566,1.1566,0,0,1.1528,1.1531,1.1532,1.1534,1.1538,1.154,1.154,1.1544,1.1546,1.1546,1.155,1.155,1.1552,1.1553,1.1554,1.1549,1.1551,1.1549,1.1545,1.1543,1.1542,1.1542,1.1539,1.1538,1.1549,1.1549,1.1549,0,1.1525,1.1528,1.1532,1.1533,1.1534,1.1538,1.1538,1.154,1.1543,1.1544,1.1546,1.1547,1.1549,1.1548,1.1547,1.1548,1.1547,1.1549,1.1542,1.1542,1.1541,1.1538,1.1537,1.1549,1.1549,1.1549,1.1549,0,1.1523,1.1524,1.1524,1.1528,1.1529,1.1529,1.1532,1.1533,1.1535,1.1537,1.1536,1.1539,1.154,1.154,1.1542,1.1538,1.1539,1.1542,1.1545,1.1539,1.1537,1.1536,1.1548,1.1548,1.1548,1.1549,0,0,1.1518,1.1522,1.1522,1.1523,1.1526,1.1527,1.1527,1.1528,1.1527,1.1529,1.1528,1.1529,1.1531,1.1532,1.1534,1.1532,1.1526,1.1535,1.1535,1.1532,1.1521,1.1518,1.1517,1.1528,1.1528,1.1528,1.152,0,1.1515,1.1515,1.1518,1.1517,1.1518,1.1521,1.152,1.1522,1.1523,1.1523,1.1524,1.1524,1.1528,1.1528,1.1526,1.1527,1.1524,1.1528,1.1526,1.1526,1.1525,1.1516,1.1514,1.1507,1.1519,1.1519,1.1519,0,1.1512,1.1513,1.1512,1.1514,1.1514,1.1513,1.1514,1.1514,1.1515,1.1516,1.1516,1.1518,1.1516,1.152,1.1517,1.1519,1.1519,1.1519,1.1519,1.1518,1.1522,1.1514,1.1505,1.1503,1.1518,1.1518,1.1518,0,1.1507,1.1508,1.1507,1.1508,1.151,1.1509,1.151,1.1511,1.1511,1.1511,1.1511,1.151,1.151,1.1509,1.1511,1.1513,1.1507,1.1511,1.1507,1.1507,1.1505,1.1505,1.1494,1.1506,1.1506,1.1506,1.1506,0,1.1503,1.1502,1.1505,1.1504,1.1503,1.1505,1.1503,1.1504,1.1505,1.1503,1.1506,1.1505,1.1507,1.1506,1.1507,1.1503,1.1503,1.1503,1.1503,1.1503,1.1503,1.1502,1.1502,1.1506,1.1506,1.1506,1.1506,0,1.1497,1.1499,1.1498,1.15,1.15,1.1499,1.15,1.1499,1.15,1.1498,1.1498,1.1499,1.1497,1.1499,1.1497,1.1497,1.1493,1.1494,1.1492,1.1492,1.1488,1.1488,1.1476,1.1474,1.1487,1.1487,1.1487,0,1.1494,1.1494,1.1495,1.1494,1.1495,1.1494,1.1493,1.1495,1.1495,1.1494,1.1493,1.1491,1.149,1.1486,1.1487,1.1485,1.1486,1.1481,1.1485,1.1484,1.1484,1.1484,1.1483,1.1481,1.148,1.148,1.148,0,1.1489,1.1489,1.1489,1.1488,1.1488,1.1487,1.1487,1.1486,1.1488,1.1487,1.1485,1.1484,1.1481,1.1479,1.1477,1.1477,1.1478,1.1479,1.1478,1.1476,1.1475,1.1475,1.1489,1.1479,1.1479,1.1479,1.1479,1.1479,1.1484,1.1483,1.1483,1.1482,1.1481,1.1481,1.1479,1.1479,1.1478,1.1476,1.1477,1.1474,1.1473,1.1471,1.147,1.1467,1.1469,1.1467,1.1467,1.1466,1.1465,1.1476,1.1467,1.1467,1.1467,1.1467,1.1467,0,1.1478,1.1477,1.1476,1.1475,1.1474,1.1475,1.1475,1.1473,1.1471,1.147,1.1468,1.1465,1.1462,1.1461,1.1459,1.1456,1.1457,1.1455,1.1455,1.1455,1.1464,1.1465,1.1455,1.1455,1.1455,1.1455,1.1455,1.1455,1.1474,1.1471,1.1472,1.1468,1.1468,1.1465,1.1464,1.1463,1.1462,1.1458,1.1456,1.1456,1.1454,1.1451,1.1448,1.1448,1.1446,1.1444,1.1444,1.1453,1.1454,1.1455,1.1456,1.1444,1.1444,1.1435,1.1434,1.1434]}]]